Погода в Янгоне

Мьянма     16°54′28″N   96°07′40″E
темп.,
°C
ветер,
м/с
пор.,
м/с
влажн.,
%
обл.,
%
осадки,
мм/ч
давл.,
гПа
погр.,
м
15 августа, пн
пн1500:30+26зюз248895 0.0 101098
03:30+25зюз2391100 0.1 100887
06:30+25зсз1290100 0.1 100992
09:30+28зсз1179100 0.0 1010399
12:30+28зсз2481100 0.1 1009612
15:30+27з2485100 0.0 1007336
18:30+26юз2387100 0.1 100789
21:30+26з1189100 1.7 100919
16 августа, вт
вт1600:30+25зюз2694100 2.9 1008180
03:30+25з3891100 4.9 1006201
06:30+25з2891100 7.7 1007217
09:30+26сз3788100 2.3 1009338
12:30+26з3588100 3.9 1007247
15:30+27з3688100 1.1 1004331
18:30+26зюз379170 1.7 1005187
21:30+25зюз379497 3.3 1007189
17 августа, ср
ср1700:30+25зюз369497 6.9 1006167
03:30+24з3893100 2.4 1005197
06:30+25з289396 2.7 1006299
09:30+28зсз368198 0.0 1007643
12:30+31з566840 1.3 10051213
15:30+30зюз677382 4.9 1003989
18:30+27зюз598495 8.3 1004348
21:30+26зюз4991100 0.0 1006441
18 августа, чт
чт1800:30+25юз3894100 0.1 1005381
03:30+25зюз2794100 0.4 1004298
06:30+25юз2594100 0.6 1005224
09:30+28юз2379100 1.5 1006477
12:30+31ююз456541 3.4 10041319
15:30+31ююз566796 1.6 10021074
18:30+27ююз478560 7.3 1003172
21:30+26юз3890100 4.1 1006296
19 августа, пт
пт1900:30+25юз3693100 6.4 1005274
03:30+25ююз2293100 0.6 100467
06:30+25ююз2392100 0.6 1005138
09:30+29ююз337363 0.4 1006850
12:30+31ююз456786 3.8 10041246
15:30+30юз457297 8.0 1002931
18:30+27ююз368588 17.0 1003139
21:30+27ююз3589100 1.6 1006151